Weather History for KCQM - February, 2014

Change the Weather History Date:

Tuesday, February 18, 2014

  Actual Average Record
Temperature  
Mean Temperature 30 °F -  
Max Temperature 42 °F 25 °F 48 °F (2002)
Min Temperature 17 °F 3 °F -25 °F (2015)
Degree Days  
Heating Degree Days 36    
Moisture  
Dew Point 21 °F    
Average Humidity 75    
Maximum Humidity 100    
Minimum Humidity 42    
Precipitation  
Precipitation 0.02 in - - ()
Sea Level Pressure  
Sea Level Pressure 29.52 in    
Wind  
Wind Speed 5 mph (SW)    
Max Wind Speed 8 mph    
Max Gust Speed -    
Visibility 10 miles    
Events      
Averages and records for this station are not official NWS values.
T = Trace of Precipitation, MM = Missing Value Source: NWS Daily Summary

Daily Weather History Graph

Daily Weather History Graph

Search for Another Location

Airport or City:

Trip Planner

Search our weather history database for the weather conditions in past years. The results will help you decide how hot, cold, wet, or windy it might be!

Date:

Astronomy

Feb. 18, 2014 Rise Set
Actual Time 7:11 AM CST 5:38 PM CST
Civil Twilight 6:39 AM CST 6:10 PM CST
Nautical Twilight 6:03 AM CST 6:46 PM CST
Astronomical Twilight 5:28 AM CST 7:22 PM CST
Moon 9:53 PM CST (2/18) 8:25 AM CST (2/18)
Length of Visible Light 11h 30m
Length of Day
10h 26m
Waning Gibbous, 87% of the Moon is Illuminated
Feb 18
Waning Gibbous
Feb 22
Last Quarter
Mar 1
New
Mar 8
First Quarter
Mar 16
Full

Hourly Weather History & Observations

Time (CST) Temp. Windchill Dew Point Humidity Pressure Visibility Wind Dir Wind Speed Gust Speed Precip Events Conditions
12:15 AM 17.6 °F 10.7 °F 17.6 °F 100% 29.59 in 7.0 mi South 4.6 mph - N/A   Clear
12:34 AM 17.6 °F 10.7 °F 15.8 °F 93% 29.58 in 5.0 mi South 4.6 mph - N/A   Clear
12:55 AM 19.4 °F 11.5 °F 17.6 °F 93% 29.57 in 7.0 mi South 5.8 mph - N/A   Clear
1:14 AM 19.4 °F 11.5 °F 17.6 °F 93% 29.55 in 7.0 mi SSE 5.8 mph - N/A   Clear
1:35 AM 19.4 °F 11.5 °F 17.6 °F 93% 29.55 in 7.0 mi SSE 5.8 mph - N/A   Scattered Clouds
1:55 AM 19.4 °F 14.3 °F 17.6 °F 93% 29.55 in 7.0 mi SSE 3.5 mph - N/A   Scattered Clouds
2:14 AM 19.4 °F 14.3 °F 17.6 °F 93% 29.54 in 7.0 mi SSE 3.5 mph - N/A   Scattered Clouds
2:35 AM 19.4 °F 11.5 °F 17.6 °F 93% 29.53 in 7.0 mi SSE 5.8 mph - N/A   Mostly Cloudy
2:55 AM 21.2 °F 12.6 °F 17.6 °F 86% 29.53 in 7.0 mi South 6.9 mph - N/A   Overcast
3:14 AM 21.2 °F 13.6 °F 19.4 °F 93% 29.52 in 10.0 mi SSE 5.8 mph - N/A   Overcast
3:35 AM 21.2 °F 14.9 °F 17.6 °F 86% 29.51 in 10.0 mi SSE 4.6 mph - N/A   Mostly Cloudy
3:55 AM 21.2 °F 14.9 °F 19.4 °F 93% 29.50 in 10.0 mi SSW 4.6 mph - N/A   Scattered Clouds
4:14 AM 23.0 °F 15.8 °F 19.4 °F 86% 29.50 in 10.0 mi South 5.8 mph - N/A   Clear
4:35 AM 23.0 °F 17.0 °F 19.4 °F 86% 29.50 in 10.0 mi South 4.6 mph - N/A   Clear
4:55 AM 23.0 °F 13.9 °F 19.4 °F 86% 29.49 in 10.0 mi South 8.1 mph - N/A   Clear
5:14 AM 23.0 °F 18.4 °F 19.4 °F 86% 29.48 in 10.0 mi South 3.5 mph - N/A   Clear
5:34 AM 23.0 °F 17.0 °F 19.4 °F 86% 29.47 in 10.0 mi South 4.6 mph - N/A   Mostly Cloudy
5:55 AM 24.8 °F 17.9 °F 19.4 °F 80% 29.47 in 10.0 mi South 5.8 mph - N/A   Mostly Cloudy
6:14 AM 24.8 °F 17.9 °F 19.4 °F 80% 29.47 in 10.0 mi SSW 5.8 mph - N/A   Mostly Cloudy
6:34 AM 24.8 °F 17.9 °F 19.4 °F 80% 29.46 in 10.0 mi South 5.8 mph - N/A   Overcast
6:54 AM 24.8 °F 16.1 °F 19.4 °F 80% 29.47 in 10.0 mi South 8.1 mph - N/A   Overcast
7:15 AM 24.8 °F 19.1 °F 19.4 °F 80% 29.47 in 10.0 mi South 4.6 mph - N/A   Overcast
7:35 AM 24.8 °F 17.9 °F 19.4 °F 80% 29.47 in 10.0 mi South 5.8 mph - N/A   Scattered Clouds
7:54 AM 24.8 °F 19.1 °F 19.4 °F 80% 29.47 in 10.0 mi SSW 4.6 mph - N/A   Scattered Clouds
8:15 AM 24.8 °F 16.9 °F 21.2 °F 86% 29.46 in 10.0 mi SSW 6.9 mph - N/A   Scattered Clouds
8:34 AM 26.6 °F 21.2 °F 21.2 °F 80% 29.46 in 10.0 mi South 4.6 mph - N/A   Scattered Clouds
8:55 AM 26.6 °F 21.2 °F 21.2 °F 80% 29.46 in 10.0 mi SSW 4.6 mph - N/A   Scattered Clouds
9:15 AM 26.6 °F 21.2 °F 21.2 °F 80% 29.46 in 10.0 mi South 4.6 mph - N/A   Scattered Clouds
9:34 AM 28.4 °F 21.2 °F 21.2 °F 74% 29.46 in 10.0 mi South 6.9 mph - N/A   Scattered Clouds
9:55 AM 28.4 °F 24.6 °F 21.2 °F 74% 29.48 in 10.0 mi SW 3.5 mph - N/A   Scattered Clouds
10:15 AM 28.4 °F 24.6 °F 21.2 °F 74% 29.48 in 10.0 mi SSW 3.5 mph - N/A   Scattered Clouds
10:34 AM 28.4 °F 22.2 °F 21.2 °F 74% 29.47 in 10.0 mi SW 5.8 mph - N/A   Scattered Clouds
10:54 AM 28.4 °F 22.2 °F 21.2 °F 74% 29.47 in 10.0 mi SW 5.8 mph - 0.01 in   Scattered Clouds
11:15 AM 30.2 °F 25.4 °F 21.2 °F 69% 29.48 in 10.0 mi WSW 4.6 mph - N/A   Scattered Clouds
11:34 AM 32.0 °F 28.7 °F 23.0 °F 69% 29.49 in 10.0 mi West 3.5 mph - N/A   Clear
11:55 AM 33.8 °F 28.6 °F 24.8 °F 70% 29.49 in 10.0 mi West 5.8 mph - 0.01 in   Clear
12:15 PM 33.8 °F 28.6 °F 24.8 °F 70% 29.48 in 10.0 mi West 5.8 mph - N/A   Clear
12:34 PM 35.6 °F 30.7 °F 24.8 °F 65% 29.48 in 10.0 mi WSW 5.8 mph - N/A   Clear
12:55 PM 35.6 °F 32.8 °F 24.8 °F 65% 29.48 in 10.0 mi West 3.5 mph - N/A   Clear
1:14 PM 37.4 °F 34.9 °F 26.6 °F 65% 29.48 in 10.0 mi SW 3.5 mph - N/A   Clear
1:35 PM 37.4 °F 33.8 °F 26.6 °F 65% 29.48 in 10.0 mi SW 4.6 mph - N/A   Clear
1:54 PM 39.2 °F 35.9 °F 26.6 °F 61% 29.48 in 10.0 mi West 4.6 mph - N/A   Clear
2:14 PM 39.2 °F 35.9 °F 26.6 °F 61% 29.48 in 10.0 mi West 4.6 mph - N/A   Clear
2:35 PM 41.0 °F 37.1 °F 26.6 °F 57% 29.48 in 10.0 mi West 5.8 mph - N/A   Clear
2:54 PM 41.0 °F 36.4 °F 24.8 °F 53% 29.48 in 10.0 mi West 6.9 mph - N/A   Clear
3:14 PM 41.0 °F 36.4 °F 24.8 °F 53% 29.49 in 10.0 mi West 6.9 mph - N/A   Clear
3:35 PM 41.0 °F 36.4 °F 23.0 °F 49% 29.49 in 10.0 mi WNW 6.9 mph - N/A   Clear
3:54 PM 41.0 °F 36.4 °F 23.0 °F 49% 29.50 in 10.0 mi West 6.9 mph - N/A   Clear
4:15 PM 42.8 °F 40.1 °F 21.2 °F 42% 29.50 in 10.0 mi WNW 4.6 mph - N/A   Clear
4:35 PM 39.2 °F 35.9 °F 23.0 °F 52% 29.51 in 10.0 mi WNW 4.6 mph - N/A   Clear
4:54 PM 39.2 °F 35.9 °F 23.0 °F 52% 29.51 in 10.0 mi WNW 4.6 mph - N/A   Clear
5:15 PM 39.2 °F 37.0 °F 21.2 °F 49% 29.52 in 10.0 mi WNW 3.5 mph - N/A   Clear
5:35 PM 37.4 °F - 21.2 °F 52% 29.53 in 10.0 mi Calm Calm - N/A   Clear
5:54 PM 30.2 °F - 23.0 °F 75% 29.53 in 10.0 mi Calm Calm - N/A   Clear
6:15 PM 28.4 °F 24.6 °F 24.8 °F 86% 29.55 in 10.0 mi West 3.5 mph - N/A   Clear
6:35 PM 28.4 °F 24.6 °F 23.0 °F 80% 29.55 in 10.0 mi WSW 3.5 mph - N/A   Clear
6:54 PM 30.2 °F 26.7 °F 21.2 °F 69% 29.56 in 10.0 mi West 3.5 mph - N/A   Clear
7:15 PM 26.6 °F 18.2 °F 19.4 °F 74% 29.57 in 10.0 mi West 8.1 mph - N/A   Clear
7:34 PM 32.0 °F 25.6 °F 21.2 °F 64% 29.57 in 10.0 mi West 6.9 mph - N/A   Clear
7:55 PM 28.4 °F 23.3 °F 19.4 °F 69% 29.57 in 10.0 mi WSW 4.6 mph - N/A   Clear
8:14 PM 30.2 °F 23.4 °F 21.2 °F 69% 29.58 in 10.0 mi West 6.9 mph - N/A   Clear
8:35 PM 28.4 °F 22.2 °F 21.2 °F 74% 29.58 in 10.0 mi West 5.8 mph - N/A   Clear
8:54 PM 28.4 °F 21.2 °F 21.2 °F 74% 29.59 in 10.0 mi West 6.9 mph - N/A   Clear
9:15 PM 28.4 °F 23.3 °F 21.2 °F 74% 29.58 in 10.0 mi WSW 4.6 mph - N/A   Clear
9:34 PM 28.4 °F 22.2 °F 21.2 °F 74% 29.58 in 10.0 mi West 5.8 mph - N/A   Clear
9:55 PM 26.6 °F 19.1 °F 19.4 °F 74% 29.59 in 10.0 mi WSW 6.9 mph - N/A   Clear
10:15 PM 26.6 °F 21.2 °F 19.4 °F 74% 29.58 in 10.0 mi SW 4.6 mph - N/A   Clear
10:34 PM 24.8 °F 17.9 °F 19.4 °F 80% 29.59 in 10.0 mi SW 5.8 mph - N/A   Clear
10:55 PM 26.6 °F 20.0 °F 19.4 °F 74% 29.59 in 10.0 mi WSW 5.8 mph - N/A   Clear
11:15 PM 26.6 °F 19.1 °F 19.4 °F 74% 29.59 in 10.0 mi WSW 6.9 mph - N/A   Clear
11:34 PM 24.8 °F 16.1 °F 19.4 °F 80% 29.58 in 10.0 mi WSW 8.1 mph - N/A   Clear
11:55 PM 24.8 °F 16.1 °F 19.4 °F 80% 29.59 in 10.0 mi WSW 8.1 mph - N/A   Clear